www.pogodaiklimat.ru

Погода и климат >> Архив погоды >> Гана >> Kete-Krachi


ПОГОДА в Kete-Krachi

  • Прогноз погоды в Kete-Krachi
  • Монитор погоды в Kete-Krachi
  • Климат города

АРХИВ ПОГОДЫ в Kete-Krachi

Время (UTC), дата Ветер
(напр.,м/с)
 
Видим.   Явления Облачность Т
(С)
Тd
(С)
f
(%)
Тe
(С)
Тes
(С)
Комфортность P
(гПа)
Po
(гПа)
Тmin
(С)
Tmax
(С)
R
(мм)
R24
(мм)
S
(см)
03 16.06 ЮЗ 1 18 км 9/5 360 м
[Sc Ac trans]
+26.0 +24.6 92 +37 +37 очень
душно
1012.2 1012.0
06 16.06 ЮЗ 1 22 км 9/6 360 м
[Sc Ac trans]
+25.8 +24.4 92 +36 +36 очень
душно
1013.1 1013.0 +25.2 2
09 16.06 ЮЗ 2 25 км 8/5 400 м
[Cu Sc Ac trans Ci sp]
+27.2 +24.8 87 +39 +43 очень
душно
1015.0 1015.0
12 16.06 ЮЗ 2 28 км {дождь} 8/5 400 м
[Cu Sc Ac trans]
+29.5 +25.6 80 +44 +50 опасность
перегрева
1014.5 1015.0 0.0
15 16.06 СЗ 1 18 км 8/4 500 м
[Cb cap Ac trans Ci sp]
+31.0 +25.5 73 +46 +51 опасность
перегрева
1011.8 1012.0
18 16.06 штиль 0 28 км {дождь} 8/3 500 м
[Cb cap Ac trans Ci sp]
+29.2 +25.6 81 +43 +43 опасность
перегрева
1012.0 1012.0 +31.0 0.6
00 17.06 штиль 0 16 км {гроза, дождь} 9/3 360 м
[Sc Ac trans Cs]
+23.8 +23.0 95 +32 +32 очень
душно
1014.8 1015.0 0.4
03 17.06 ЮЗ 1 16 км 9/6 360 м
[Sc Ac trans]
+24.5 +23.1 92 +33 +33 очень
душно
1015.0 1015.0
06 17.06 СЗ 2 18 км в посл. час дождь 9/4 360 м
[Sc Ac trans]
+23.0 +21.6 92 +31 +31 очень
душно
1014.3 1014.0 +22.5 1
09 17.06 С 2 25 км 9/4 400 м
[Sc Ac As]
+25.5 +23.9 91 +35 +38 очень
душно
1016.5 1017.0
12 17.06 С 2 28 км 10/3 480 м
[Cu hum Ac trans Cs]
+27.0 +22.8 78 +36 +43 очень
душно
1014.7 1015.0
15 17.06 ЮЗ 2 28 км 10/0
[Ac trans Cs]
+27.5 +22.6 75 +36 +43 очень
душно
1010.2 1010.0
18 17.06 В 1 25 км 9/4 400 м
[Sc Ac trans]
+27.0 +23.1 79 +36 +36 очень
душно
1010.5 1011.0 +28.0
21 17.06 штиль 0 18 км 9/4 360 м
[Sc Ac trans]
+26.3 +23.9 87 +36 +36 очень
душно
1012.1 1012.0
00 18.06 штиль 0 18 км 9/4 360 м
[Sc Ac trans]
+25.5 +24.1 92 +35 +35 очень
душно
1012.4 1012.0
03 18.06 штиль 0 18 км 9/3 360 м
[Sc Ac trans]
+25.0 +23.9 94 +34 +34 очень
душно
1011.1 1011.0
06 18.06 штиль 0 22 км 8/3 360 м
[Sc Ac trans]
+24.5 +23.8 96 +33 +33 очень
душно
1011.8 1012.0 +23.8
09 18.06 Ю 1 25 км 8/5 400 м
[Cu Sc Ac trans Ci sp]
+27.6 +24.8 85 +39 +44 очень
душно
1014.4 1014.0
12 18.06 ЮЗ 2 28 км 6/5 480 м
[Cu med, cong Ac trans Ci sp]
+30.0 +24.3 72 +42 +51 опасность
перегрева
1012.3 1012.0
15 18.06 ЮЗ 2 28 км 6/4 540 м
[Cb cap Ac trans Ci sp]
+31.5 +24.7 67 +44 +50 опасность
перегрева
1010.3 1010.0
18 18.06 штиль 0 25 км 8/4 400 м
[Cb cap Ac trans Ci sp]
+30.3 +24.6 72 +43 +43 опасность
перегрева
1010.5 1011.0 +32.3
21 18.06 штиль 0 18 км 5/0
[Ac trans Ci sp]
+27.7 +26.1 91 +42 +42 опасность
перегрева
1011.9 1012.0
03 19.06 штиль 0 16 км 4/0
[Ci sp]
+25.2 +24.2 94 +35 +35 очень
душно
1011.4 1011.0
06 19.06 штиль 0 20 км 9/4 400 м
[Sc Ac trans]
+25.5 +24.1 92 +35 +35 очень
душно
1012.4 1012.0 +24.7
09 19.06 СЗ 1 25 км 5/4 400 м
[Cu Sc Ci sp]
+28.5 +24.6 79 +40 +48 очень
душно
1014.3 1014.0
12 19.06 ЮВ 2 28 км 8/6 400 м
[Cu Sc Ci sp]
+31.4 +24.7 68 +45 +52 опасность
перегрева
1012.7 1013.0
15 19.06 В 1 28 км 9/5 400 м
[Cu Sc Ac trans Cs]
+30.7 +26.3 77 +46 +50 опасность
перегрева
1009.7 1010.0
18 19.06 В 1 25 км гроза без осадков 9/4 400 м
[Cb cap Ac trans Cs]
+28.8 +26.1 85 +43 +43 опасность
перегрева
1010.4 1010.0 +31.4
21 19.06 СВ 1 10 км гроза, ливневой дождь 9/6 360 м
[Cb cap Ac trans]
+25.2 +24.2 94 +35 +35 очень
душно
1011.2 1011.0
00 20.06 СВ 1 15 км гроза без осадков {дождь} 9/5 360 м
[Cb cap Ac As]
+24.0 +23.3 96 +32 +32 очень
душно
1015.7 1016.0 12
03 20.06 ЮЗ 1 10 км слабый ливневой дождь, в посл. час гроза 9/5 330 м
[Sc Ac As]
+25.0 +24.2 95 1014.8 1014.8
06 20.06 ЮЗ 1 22 км {гроза, дождь} 9/4 360 м
[Sc Ac trans]
+25.0 +23.6 92 +34 +34 очень
душно
1013.2 1013.0 +23.4 15
09 20.06 ЮЗ 1 25 км 9/5 360 м
[Cu Sc Ac trans]
+26.6 +24.4 88 +37 +41 очень
душно
1015.5 1016.0
12 20.06 ЮЗ 2 26 км 9/5 360 м
[Cu Sc Ac trans]
+29.0 +24.5 77 +41 +47 опасность
перегрева
1015.4 1015.0
15 20.06 ЮЗ 1 15 км гроза, ливневой дождь 9/6 360 м
[Cb cap Ac As]
+24.5 +23.8 96 +33 +36 очень
душно
1012.9 1013.0
18 20.06 ЮЗ 2 20 км слабый дождь {гроза} 9/8 360 м
[Sc Ac As]
+24.0 +23.3 96 +32 +32 очень
душно
1013.6 1014.0 +29.0 27
21 20.06 штиль 0 18 км {дождь} 9/5 360 м
[Sc Ac trans]
+23.5 +23.1 98 +31 +31 очень
душно
1014.8 1015.0
00 21.06 штиль 0 18 км {дождь} 9/5 360 м
[Sc Ac trans]
+23.5 +23.1 98 +31 +31 очень
душно
1015.1 1015.0 5
03 21.06 штиль 0 18 км 9/5 360 м
[Sc Ac trans]
+24.0 +23.3 96 +32 +32 очень
душно
1013.6 1014.0
06 21.06 ЮЗ 1 22 км 9/4 360 м
[Sc Ac trans]
+24.0 +23.4 96 +32 +32 очень
душно
1014.7 1015.0 +22.8 32
09 21.06 ЮЗ 1 24 км 9/4 480 м
[Cu med, cong Ac trans]
+26.5 +24.5 89 +37 +41 очень
душно
1017.2 1017.0
12 21.06 ЮЗ 1 24 км 9/5 480 м
[Cu med, cong Ac trans]
+29.2 +24.2 74 +41 +47 опасность
перегрева
1015.9 1016.0
18 21.06 ЮЗ 1 24 км 5/1 900 м
[Cb cap Ac trans]
+29.0 +24.5 77 +41 +41 опасность
перегрева
1011.5 1012.0 +30.3
21 21.06 штиль 0 18 км 6/0
[Ac trans]
+26.5 +25.0 91 +38 +38 очень
душно
1014.3 1014.0
03 22.06 штиль 0 18 км 8/0
[Ac trans]
+25.2 +24.2 94 +35 +35 очень
душно
1014.2 1014.0
06 22.06 штиль 0 22 км 9/3 360 м
[Sc Ac trans]
+25.2 +24.0 93 +35 +35 очень
душно
1013.8 1014.0 +24.6
09 22.06 штиль 0 24 км 9/3 420 м
[Cu med, cong Ac trans]
+28.0 +25.9 88 +42 +47 опасность
перегрева
1016.2 1016.0
12 22.06 штиль 0 28 км 9/5 480 м
[Cu med, cong Ac trans]
+31.7 +25.4 69 +46 +53 опасность
перегрева
1013.7 1014.0
15 22.06 СЗ 2 24 км 9/6 400 м
[Cb cap Ac trans]
+31.7 +24.6 66 +44 +47 опасность
перегрева
1011.5 1012.0
21 22.06 штиль 0 18 км зарница 6/1 900 м
[Cb cap Ac trans Ci sp]
+27.5 +25.9 91 +41 +41 опасность
перегрева
1011.7 1012.0
00 23.06 штиль 0 18 км 9/4 360 м
[Sc Ac trans]
+27.2 +26.3 95 +41 +41 опасность
перегрева
1013.0 1013.0

 

Местоположение метеостанции Kete-Krachi (Гана): широта 7.82 долгота -0.03 высота над уровнем моря 122 м.

В архиве по умолчанию представлена погода в Kete-Krachi за последнюю неделю. Архивные данные за месяц целиком и за предыдущие месяцы, начиная с января 2011 года, Вы можете получить, выбрав интересующий диапазон дат из раскрывающегося списка и нажав кнопку "Ввод!".

Внимание! Время в таблицах - всемирное. Для получения местного времени необходимо прибавить поправку, которая в Kete-Krachi равна 1 ч.

Смотрите также архив погоды в соседних городах и на ближайших метеорологических станциях:

Погода в Atakpame (Того) (130 км)
Погода в Ho (Гана) (146 км)
Погода в Abetifi (Гана) (151 км)
Погода в Yendi (Гана) (181 км)
Погода в Sokode (Того) (183 км)
Погода в Akuse (Гана) (192 км)
Погода в Koforidua (Гана) (195 км)
Погода в Tamale (Гана) (207 км)
Погода в Akatsi (Гана) (210 км)
Погода в Kumasi (Гана) (212 км)

Пояснения к столбцам:

Ветер - указаны скорость ветра в м/с - средняя за 10 мин, порывы в срок и между сроками (в фигурных скобках) и направление, откуда дует ветер: С - северный, СВ - северо-восточный, В - восточный, ЮВ - юго-восточный, Ю - южный, ЮЗ - юго-западный, З - западный, СЗ - северо-западный.
Видимость - горизонтальная дальность видимости в метрах или километрах. При видимости от 1 до 10 км при отсутствии осадков обычно наблюдается дымка, при ухудшении видимости до 1 км и менее - туман. В сухую погоду видимость может ухудшаться дымом, пылью или мглою.
Явления - указаны атмосферные явления, наблюдавшиеся в срок или в последний час перед сроком; фигурными скобками обозначены явления, наблюдавшиеся между сроками (за 1-3 часа до срока); квадратными скобками обозначены град или гололедные отложения с указанием их диаметра в мм.
Облачность - указаны через наклонную черту общая и нижняя облачность в баллах и высота нижней границы облаков в метрах; квадратными скобками обозначены формы облаков: Ci - перистые, Cs - перисто-слоистые, Cc - перисто-кучевые, Ac - высококучевые, As - высокослоистые, Sc - слоисто-кучевые, Ns - слоисто-дождевые, Cu - кучевые, Cb - кучево-дождевые. Подробнее классификацию облаков см. в Атласе облаков (PDF).
T - Температура воздуха - температура, измеренная на высоте 2 м над землей.
Td - Температура точки росы - температура, при понижении до которой содержащийся в воздухе водяной пар достигнет насыщения.
f - Относительная влажность воздуха - влажноcть воздуха, измеренная на высоте 2 м над землей.
Te - Эффективная температура - температура, которую ощущает одетый по сезону человек в тени. Характеристика душности погоды. При расчете учитывается влияние влажности воздуха и скорости ветра на теплоощущения человека.
Tes - Эффективная температура на солнце - температура, которую ощущает человек, с поправкой на солнечный нагрев. Характеристика знойности погоды. Зависит от высоты солнца над горизонтом, облачности и скорости ветра. Ночью, в пасмурную погоду, а также при ветре 12 м/с и более поправка равна нулю.
P - Атмосферное давление - приведенное к уровню моря атмосферное давление.
Po - Атмосферное давление - измеренное на уровне метеостанции атмосферное давление.
Tmin - Минимальная температура - минимум температуры воздуха на высоте 2 м над землей.
Tmax - Максимальная температура - максимум температуры воздуха на высоте 2 м над землей.
R - Количество осадков - Количество выпавших осадков за период времени, мм. При наведении курсора мыши на число - период времени, за который выпало указанное количество осадков.
R24 - Количество осадков - Количество выпавших осадков за 24 часа, мм.
S - Снежный покров - Высота снежного покрова, см. При наведении курсора мыши на число - состояние снежного покрова и степень покрытия местности в баллах.